SCP
0 0 0 0 0 0 0 0 0 0 0 0 0 0 0 0 0 0 0 0 0 0 0 0 0 0 0 0 0 0 0 0 1 2 3 2 2 1 1 0 0 0 0 0
0 0 0 0 0 0 0 0 0 0 0 0 0 0 0 0 0 0 0 0 0 0 0 0 0 0 0 0 0 0 0 0 1 2 2 2 2 2 1 1 0 0 0 0
0 0 0 0 0 0 0 0 0 0 0 0 0 0 0 0 0 0 0 0 0 0 0 0 0 0 0 0 0 0 0 0 0 1 2 2 2 2 1 1 1 0 0 0
0 0 0 0 0 0 0 0 0 0 0 0 0 0 0 0 0 0 0 0 0 0 0 0 0 0 0 0 0 0 0 0 0 1 1 2 2 2 2 1 1 0 0 0
0 0 0 0 0 0 0 0 0 0 0 0 0 0 0 0 0 0 0 0 0 0 0 0 0 0 0 0 0 0 0 0 0 0 1 1 2 2 1 1 1 1 0 0
0 0 0 0 0 0 0 0 0 0 0 0 0 0 0 0 0 0 0 0 0 0 0 0 0 0 0 0 0 0 0 0 0 0 0 1 1 1 1 1 1 1 0 0
0 0 0 0 0 0 0 0 0 0 0 0 0 0 0 0 0 0 0 0 0 0 0 0 0 0 0 0 0 0 0 0 0 0 0 0 1 1 1 1 1 1 0 0
0 0 0 0 0 0 0 0 0 0 0 0 0 0 0 0 0 0 0 0 0 0 0 0 0 0 0 0 0 0 0 0 0 0 0 0 0 1 1 0 0 0 0 0
0 0 0 0 0 0 0 0 0 0 0 0 0 0 0 0 0 0 0 0 0 0 0 0 0 0 0 0 0 0 0 0 0 0 0 0 0 0 0 0 0 0 0 0
0 0 0 0 0 0 0 0 0 0 0 0 0 0 0 0 0 0 0 0 0 0 0 0 0 0 0 0 0 0 0 0 0 0 0 0 0 0 0 0 0 0 0 0
0 0 0 0 0 0 0 0 0 0 0 0 0 0 0 0 0 0 0 0 0 0 0 0 0 0 0 0 0 0 0 0 0 0 0 0 0 0 0 0 0 0 0 0
0 0 0 0 0 0 0 0 0 0 0 0 0 0 0 0 0 0 0 0 0 0 0 0 0 0 0 0 0 0 0 0 0 0 0 0 0 0 0 0 0 0 0 0
0 0 0 0 0 0 0 0 0 0 0 0 0 0 0 0 0 0 0 0 0 0 0 0 0 0 0 0 0 0 0 0 0 0 0 0 0 0 0 0 0 0 0 0
0 0 0 0 0 0 0 0 0 0 0 0 0 0 0 0 0 0 0 0 0 0 0 0 0 0 0 0 0 0 0 0 0 0 0 0 0 0 0 0 0 0 0 0
0 0 0 0 0 0 0 0 0 0 0 0 0 0 0 0 0 0 0 0 0 0 0 0 0 0 0 0 0 0 0 0 0 0 0 0 0 0 0 0 0 0 0 0
0 0 0 0 0 0 0 0 0 0 0 0 0 0 0 0 0 0 0 0 0 0 0 0 0 0 0 0 0 0 0 0 0 0 0 0 0 0 0 0 0 0 0 0
0 0 0 0 0 0 0 0 0 0 0 0 0 0 0 0 0 0 0 0 0 0 0 0 0 0 0 0 0 0 0 0 0 0 0 0 0 0 0 0 0 0 0 0
0 0 0 0 0 0 0 0 0 0 0 0 0 0 0 0 0 0 0 0 0 0 0 0 0 0 0 0 0 0 0 0 0 0 0 0 0 0 0 0 0 0 0 0
0 0 0 0 0 0 0 0 0 0 0 0 0 0 0 0 0 0 0 0 0 0 0 0 0 0 0 0 0 0 0 0 0 0 0 0 0 0 0 0 0 0 0 0
0 0 0 0 0 0 0 0 0 0 0 0 0 0 0 0 0 0 0 0 0 0 0 0 -0 -0 0 0 0 0 0 0 0 0 0 0 0 0 0 0 0 0 0 0
0 0 0 0 0 0 0 0 0 0 0 0 0 0 0 0 0 0 0 0 0 0 0 -0 -0 -0 -0 -0 0 0 0 0 0 0 0 0 0 0 0 0 0 0 0 0
0 0 0 0 0 0 0 0 0 0 0 0 0 0 0 0 0 0 0 0 0 0 0 0 -0 -0 -0 -0 -0 -0 -0 -0 -0 0 0 0 0 0 0 0 0 0 0 0
0 0 0 0 0 0 0 0 0 0 0 0 0 0 0 0 0 0 0 0 0 0 0 0 -0 -0 -0 -0 -0 -0 -0 -0 -0 -0 -0 -0 -0 -0 -0 -0 0 0 0 0
0 0 0 0 0 0 0 0 0 0 0 0 0 0 0 0 0 0 0 0 0 0 0 -0 -0 -0 -0 -0 -0 -0 -0 -0 -0 -0 -0 -0 0 0 0 0 0 0 0 0
0 0 0 0 0 0 0 0 0 0 0 0 0 0 0 0 0 0 0 0 0 0 0 0 0 0 0 0 0 0 0 0 0 0 0 0 0 0 0 0 0 0 0 0
0 0 0 0 0 0 0 0 0 0 0 0 0 0 0 0 0 0 0 0 0 0 0 0 0 0 0 0 0 0 0 0 0 0 0 0 0 0 0 0 0 0 0 0
Wind_Speed
7 5 7 8 6 4 7 6 3 2 2 3 5 8 12 10 7 9 10 10 10 11 9 6 7 7 7 7 8 9 9 11 9 8 10 11 12 11 10 10 11 12 11 12
6 6 6 7 7 6 6 4 2 2 4 3 5 9 11 9 8 8 8 9 10 10 9 7 6 6 7 7 8 9 10 10 10 10 10 8 9 8 10 8 10 12 12 13
6 4 9 9 8 6 3 4 3 1 4 3 6 9 8 6 3 5 6 6 7 8 10 10 8 7 6 7 7 7 9 10 10 10 6 4 4 3 5 7 9 11 13 14
5 3 7 10 7 6 3 2 4 3 3 4 5 7 10 5 8 6 6 6 7 7 7 7 7 7 7 7 6 6 7 8 8 8 8 10 10 11 11 10 11 11 14 15
4 3 7 7 6 6 4 4 5 4 3 2 1 2 12 4 5 5 7 7 7 6 6 6 6 6 6 6 5 4 5 7 7 8 10 11 12 11 8 7 9 11 11 13
4 2 3 4 4 6 8 6 6 5 4 2 2 4 10 3 3 7 8 9 8 8 8 8 7 7 7 6 5 4 4 6 6 7 9 11 14 12 9 10 11 10 7 8
4 4 3 4 6 4 4 5 3 3 3 5 2 3 11 6 5 5 8 9 8 7 8 10 12 12 11 10 8 6 5 6 6 6 8 10 13 13 13 13 13 11 9 9
5 3 1 2 4 6 3 5 5 4 3 4 2 7 10 6 6 5 5 5 7 8 8 9 9 9 9 9 9 8 7 7 6 6 7 8 9 8 8 10 10 12 11 12
5 3 3 3 3 7 5 3 3 6 2 3 5 7 10 4 2 2 5 6 8 9 9 9 9 9 9 9 9 8 8 8 7 7 7 7 7 7 8 9 9 8 8 7
6 5 2 2 5 6 4 7 5 5 3 3 6 5 5 5 3 6 8 9 10 11 11 11 10 10 9 9 9 8 7 8 7 7 6 5 6 6 6 6 8 8 7 7
4 6 3 2 2 5 4 4 5 4 3 3 3 7 6 5 3 5 8 9 10 10 10 10 10 10 10 10 9 9 8 8 7 6 6 5 4 4 4 5 6 6 6 8
3 5 3 0 2 3 4 5 6 5 3 3 2 10 5 5 5 6 9 10 9 8 8 9 10 11 10 10 9 9 8 7 7 6 5 4 2 2 3 3 4 6 7 8
5 6 4 2 3 0 2 4 4 5 5 4 4 10 4 3 7 8 8 9 8 9 10 9 10 10 10 9 9 9 8 7 7 5 4 3 1 1 2 4 6 8 9 10
6 4 5 6 4 5 4 5 6 6 4 5 9 11 12 12 12 12 11 8 7 8 9 9 10 9 9 9 9 9 9 8 6 5 4 3 2 3 4 6 7 9 10 10
5 3 3 3 2 3 5 6 8 8 8 8 8 8 14 14 13 12 7 6 8 8 9 10 11 10 9 9 10 9 9 8 6 6 6 5 5 6 7 9 9 10 11 12
4 4 2 1 1 3 5 8 9 9 9 10 10 14 15 10 7 6 5 5 7 9 9 10 10 9 9 9 9 9 9 9 7 8 8 7 9 10 10 11 12 13 13 13
4 5 2 2 3 2 7 10 14 8 8 9 12 13 10 9 9 6 4 4 6 7 8 8 8 8 8 8 8 8 8 8 9 10 10 10 10 11 12 12 13 13 13 13
7 5 3 1 2 5 6 2 8 8 8 10 10 11 9 9 6 1 1 2 5 6 6 6 6 6 6 7 7 7 7 8 9 9 9 10 10 11 12 12 13 12 11 11
5 6 3 1 2 7 7 3 7 6 5 7 11 13 10 4 3 0 1 1 2 3 4 4 5 5 6 6 6 6 7 8 8 8 8 9 9 10 11 11 11 10 10 11
3 4 3 2 3 5 4 0 3 4 3 3 5 8 6 1 3 2 2 1 2 2 3 4 4 5 6 6 6 7 7 8 8 8 8 8 9 10 10 10 10 9 9 10
5 4 5 4 4 7 7 2 3 2 3 2 3 5 3 4 4 2 3 2 1 2 3 4 4 5 6 6 6 7 8 8 7 7 8 9 9 9 10 10 9 9 9 9
8 7 6 5 6 8 3 5 5 4 2 2 3 3 3 4 4 4 4 3 2 2 3 4 5 5 6 6 6 7 8 7 7 8 9 10 9 8 8 9 8 8 7 8
7 8 5 7 8 4 2 4 4 2 3 3 3 3 3 4 5 5 4 4 3 3 3 4 5 5 6 6 6 7 6 6 7 9 9 9 9 8 7 7 7 6 5 5
4 4 4 5 7 6 7 6 5 4 5 3 3 3 4 5 6 6 5 5 4 3 3 3 5 5 5 5 6 5 5 6 8 9 8 7 7 7 6 5 5 5 4 4
4 5 4 5 5 5 4 3 3 3 3 3 3 3 5 6 6 7 6 6 5 4 3 4 4 5 5 5 5 5 5 6 8 7 6 6 6 6 6 5 4 4 3 4
3 5 5 5 3 2 5 5 3 4 5 5 4 3 4 6 7 7 6 6 6 6 5 5 5 5 5 5 5 4 4 5 7 6 5 4 4 4 4 4 4 8 6 8
Wind_Direction
147 155 182 181 166 150 151 149 178 238 339 328 275 278 280 277 265 260 262 265 268 270 266 253 243 245 245 236 227 228 224 221 207 199 204 208 212 210 207 207 202 196 191 185
136 198 177 144 137 117 119 130 169 309 0 349 306 282 270 264 247 245 259 270 278 287 295 283 262 253 242 236 227 226 225 222 211 207 206 207 208 211 210 205 199 195 189 185
144 153 146 143 151 144 127 148 168 260 352 28 337 305 297 296 317 309 297 292 297 294 297 303 303 287 273 258 240 232 226 224 217 210 202 192 189 189 192 200 204 197 189 187
86 107 143 151 160 144 169 154 136 110 50 331 21 316 292 305 327 326 334 336 326 320 313 311 316 314 300 279 266 247 238 233 226 212 201 199 205 212 209 207 207 196 191 190
106 139 144 154 151 135 134 95 93 93 108 337 355 235 282 337 332 333 333 338 338 337 339 341 338 323 314 310 302 280 261 247 237 220 211 210 216 219 211 202 200 196 193 192
71 56 90 108 94 115 121 87 70 59 71 279 233 197 279 286 273 307 319 330 337 340 349 352 350 350 344 339 332 322 300 275 258 237 223 217 219 218 205 199 201 197 190 191
76 45 52 99 91 76 109 106 48 359 10 251 200 223 256 267 266 275 296 312 324 337 350 352 350 348 343 339 333 324 313 293 280 259 241 227 223 219 213 207 205 197 190 194
119 113 40 74 132 149 154 141 161 198 235 284 226 240 258 269 279 280 288 307 326 337 338 336 332 328 325 322 321 318 310 296 286 270 257 246 234 221 217 212 206 203 202 202
131 112 40 58 79 120 121 114 126 118 119 280 273 281 301 299 344 346 337 336 331 326 324 324 323 321 317 313 307 304 301 296 291 279 268 259 241 222 215 207 206 205 202 189
119 108 75 81 75 45 120 135 108 126 162 265 295 277 263 295 328 337 334 328 322 321 322 324 324 320 314 308 302 301 293 287 286 284 271 259 247 231 218 202 202 199 185 170
95 109 94 78 141 156 120 107 104 103 141 166 288 279 226 228 279 303 303 303 304 309 316 321 320 317 314 313 312 309 305 297 294 293 286 271 259 237 208 203 201 183 163 157
105 106 113 40 337 182 150 155 144 147 189 171 214 271 268 242 269 280 289 297 304 317 324 323 322 321 321 322 322 319 314 308 302 301 299 285 265 220 191 181 160 147 146 147
120 106 95 25 344 18 182 168 151 126 121 158 202 265 293 304 301 294 296 308 324 332 331 330 328 329 328 330 330 327 325 321 320 323 321 320 337 132 144 136 132 135 136 135
109 110 152 186 218 178 193 189 166 142 163 201 231 264 290 299 303 308 314 324 332 330 335 335 333 333 336 339 341 339 338 337 337 348 357 11 50 99 115 117 118 122 124 126
103 123 171 226 244 179 200 191 185 193 193 205 237 248 274 287 294 301 311 333 335 337 342 341 339 340 346 350 351 351 350 354 7 24 32 40 63 79 88 94 100 104 107 110
101 119 124 312 280 217 233 221 204 211 218 236 262 277 271 278 291 297 320 338 333 337 338 340 343 349 352 353 355 0 5 8 27 45 48 53 68 75 81 87 92 94 97 101
118 126 127 287 283 298 257 222 200 198 205 204 233 248 273 292 297 306 327 335 330 331 336 343 346 349 354 359 4 11 15 24 40 50 54 59 71 77 81 86 89 92 94 96
131 131 143 264 342 258 246 208 181 196 226 215 235 257 272 277 296 315 86 331 330 334 341 346 346 355 4 9 16 23 32 41 49 55 61 67 75 82 85 88 90 92 94 95
140 139 152 219 273 281 291 225 167 181 255 223 230 256 272 299 325 307 89 29 342 338 349 352 354 4 13 19 24 35 43 48 53 57 64 71 80 86 88 89 90 91 94 93
118 117 153 208 249 258 260 291 166 135 274 245 216 253 274 325 308 274 129 68 22 11 13 15 12 19 26 27 32 46 48 50 53 57 64 69 76 82 84 85 86 86 88 89
160 169 202 220 244 265 252 232 140 169 236 278 240 255 254 218 218 146 135 116 78 45 41 40 35 32 29 32 46 53 50 47 50 60 67 70 72 76 80 81 80 84 87 87
178 187 193 191 214 251 237 147 179 224 259 277 265 255 242 212 144 140 142 131 111 80 61 55 52 42 35 41 56 62 53 50 60 66 67 65 66 70 75 81 80 82 92 95
194 194 187 200 218 237 215 215 239 218 252 259 242 245 216 188 178 165 156 146 129 106 85 73 73 62 47 45 59 70 59 63 72 73 70 70 69 66 69 79 84 79 77 87
235 190 193 242 259 259 263 265 265 231 230 240 234 233 197 194 180 166 160 154 142 126 104 94 89 80 65 56 63 69 73 77 81 78 72 69 71 67 59 62 70 78 80 85
221 175 197 242 274 303 296 267 266 258 240 242 238 214 204 190 180 169 163 159 150 137 123 112 108 103 94 82 73 70 79 91 89 82 77 72 71 73 68 67 73 86 87 116
204 180 185 224 242 245 276 293 298 273 262 246 227 219 201 191 179 164 160 155 148 143 134 126 122 119 112 102 90 82 89 100 102 94 82 78 78 77 78 78 70 78 89 89